Marysville, OH

12:30 PM EST on February 27, 2017 (GMT -0500)
Marysville

Weather History for KMRT - November, 2012

Change the Weather History Date:

Monday, November 19, 2012

  Actual Average (KDLZ) Record (KDLZ)
Temperature  
Mean Temperature 40 °F -  
Max Temperature 55 °F 50 °F 70 °F (1942)
Min Temperature 26 °F 32 °F 12 °F (2014)
Degree Days  
Heating Degree Days 24    
Moisture  
Dew Point 30 °F    
Average Humidity 71    
Maximum Humidity 90    
Minimum Humidity 42    
Precipitation  
Precipitation 0.00 in - - ()
Sea Level Pressure  
Sea Level Pressure 30.31 in    
Wind  
Wind Speed 0 mph (South)    
Max Wind Speed 6 mph    
Max Gust Speed -    
Visibility 10 miles    
Events      
Averages and records for this station are not official NWS values.
T = Trace of Precipitation, MM = Missing Value Source: NWS Daily Summary

Daily Weather History Graph

Daily Weather History Graph

Search for Another Location

Airport or City:

Trip Planner

Search our weather history database for the weather conditions in past years. The results will help you decide how hot, cold, wet, or windy it might be!

Date:

Astronomy

Nov. 19, 2012 Rise Set
Actual Time 7:24 AM EST 5:13 PM EST
Civil Twilight 6:54 AM EST 5:42 PM EST
Nautical Twilight 6:21 AM EST 6:15 PM EST
Astronomical Twilight 5:49 AM EST 6:48 PM EST
Moon 12:26 PM EST (11/19) 11:39 PM EST (11/19)
Length of Visible Light 10h 47m
Length of Day
9h 49m
Waxing Crescent, 40% of the Moon is Illuminated
Nov 19
Waxing Crescent
Nov 20
First Quarter
Nov 28
Full
Dec 6
Last Quarter
Dec 13
New

Hourly Weather History & Observations

Time (EST) Temp. Windchill Dew Point Humidity Pressure Visibility Wind Dir Wind Speed Gust Speed Precip Events Conditions
12:14 AM 29.7 °F - 24.8 °F 82% 30.40 in 10.0 mi Calm Calm - N/A   Clear
12:34 AM 29.8 °F - 24.8 °F 81% 30.39 in 10.0 mi Calm Calm - N/A   Clear
12:54 AM 29.3 °F - 23.2 °F 78% 30.38 in 10.0 mi Calm Calm - N/A   Clear
1:14 AM 30.9 °F - 24.6 °F 77% 30.38 in 10.0 mi Calm Calm - N/A   Clear
1:34 AM 31.1 °F - 25.2 °F 79% 30.38 in 10.0 mi Calm Calm - N/A   Clear
1:54 AM 31.1 °F - 25.0 °F 78% 30.37 in 10.0 mi Calm Calm - N/A   Clear
2:14 AM 30.2 °F - 24.6 °F 80% 30.37 in 10.0 mi Calm Calm - N/A   Clear
2:34 AM 30.6 °F - 24.8 °F 79% 30.37 in 10.0 mi Calm Calm - N/A   Clear
2:54 AM 26.8 °F - 23.0 °F 86% 30.37 in 10.0 mi Calm Calm - N/A   Clear
3:14 AM 28.2 °F - 23.5 °F 83% 30.38 in 10.0 mi Calm Calm - N/A   Clear
3:34 AM 28.0 °F - 23.4 °F 83% 30.37 in 10.0 mi Calm Calm - N/A   Clear
3:54 AM 27.0 °F - 23.2 °F 86% 30.37 in 10.0 mi Calm Calm - N/A   Clear
4:14 AM 28.4 °F - 24.1 °F 84% 30.37 in 10.0 mi Calm Calm - N/A   Clear
4:34 AM 28.8 °F - 23.9 °F 82% 30.37 in 10.0 mi Calm Calm - N/A   Clear
4:54 AM 27.7 °F - 23.7 °F 85% 30.37 in 10.0 mi Calm Calm - N/A   Clear
5:14 AM 27.7 °F - 24.6 °F 88% 30.36 in 10.0 mi Calm Calm - N/A   Clear
5:34 AM 26.8 °F - 24.3 °F 90% 30.36 in 10.0 mi Calm Calm - N/A   Clear
5:55 AM 29.3 °F - 24.4 °F 82% 30.36 in 10.0 mi Calm Calm - N/A   Clear
6:14 AM 28.9 °F - 24.8 °F 84% 30.36 in 10.0 mi Calm Calm - N/A   Clear
6:34 AM 30.2 °F - 25.5 °F 83% 30.36 in 10.0 mi Calm Calm - N/A   Clear
6:55 AM 29.1 °F - 25.5 °F 86% 30.36 in 10.0 mi Calm Calm - N/A   Clear
7:14 AM 28.8 °F - 25.5 °F 88% 30.37 in 10.0 mi Calm Calm - N/A   Clear
7:34 AM 28.9 °F - 25.9 °F 88% 30.37 in 10.0 mi Calm Calm - N/A   Clear
7:54 AM 30.2 °F - 25.7 °F 83% 30.37 in 10.0 mi Calm Calm - N/A   Clear
8:35 AM 31.3 °F - 28.4 °F 89% 30.36 in 10.0 mi Calm Calm - N/A   Clear
8:54 AM 32.0 °F - 29.1 °F 89% 30.36 in 10.0 mi Calm Calm - N/A   Clear
9:14 AM 34.5 °F - 29.7 °F 82% 30.36 in 10.0 mi Calm Calm - N/A   Clear
9:35 AM 37.0 °F - 29.5 °F 74% 30.36 in 10.0 mi Calm Calm - N/A   Clear
9:54 AM 38.7 °F - 29.8 °F 71% 30.35 in 10.0 mi Calm Calm - N/A   Clear
10:14 AM 39.7 °F - 30.7 °F 70% 30.35 in 10.0 mi Calm Calm - N/A   Clear
10:34 AM 41.5 °F 39.6 °F 31.8 °F 68% 30.35 in 10.0 mi SSE 3.5 mph - N/A   Clear
10:54 AM 43.2 °F - 32.0 °F 65% 30.35 in 10.0 mi Calm Calm - N/A   Clear
11:14 AM 45.3 °F - 30.9 °F 57% 30.35 in 10.0 mi Calm Calm - N/A   Clear
11:34 AM 46.4 °F - 31.8 °F 57% 30.34 in 10.0 mi Calm Calm - N/A   Clear
11:54 AM 48.0 °F - 32.2 °F 54% 30.34 in 10.0 mi WSW 5.8 mph - N/A   Clear
12:14 PM 49.3 °F - 33.1 °F 54% 30.33 in 10.0 mi Calm Calm - N/A   Clear
12:34 PM 50.0 °F - 33.8 °F 54% 30.32 in 10.0 mi SSW 3.5 mph - N/A   Clear
12:54 PM 51.1 °F - 33.4 °F 51% 30.32 in 10.0 mi Calm Calm - N/A   Clear
1:14 PM 52.9 °F - 33.6 °F 48% 30.31 in 10.0 mi South 4.6 mph - N/A   Clear
1:34 PM 54.1 °F - 34.2 °F 47% 30.30 in 10.0 mi SW 3.5 mph - N/A   Clear
1:54 PM 54.1 °F - 33.8 °F 46% 30.29 in 10.0 mi Calm Calm - N/A   Clear
2:15 PM 54.5 °F - 33.8 °F 46% 30.29 in 10.0 mi Calm Calm - N/A   Clear
2:34 PM 54.9 °F - 34.3 °F 46% 30.28 in 7.0 mi Calm Calm - N/A   Clear
2:54 PM 55.2 °F - 34.3 °F 45% 30.26 in 10.0 mi Calm Calm - N/A   Clear
3:14 PM 55.4 °F - 32.9 °F 43% 30.26 in 10.0 mi Calm Calm - N/A   Clear
3:34 PM 55.0 °F - 32.2 °F 42% 30.25 in 10.0 mi Calm Calm - N/A   Clear
3:54 PM 54.7 °F - 32.2 °F 42% 30.25 in 10.0 mi Calm Calm - N/A   Clear
4:14 PM 55.0 °F - 32.7 °F 43% 30.25 in 10.0 mi Calm Calm - N/A   Clear
4:34 PM 53.4 °F - 34.0 °F 48% 30.25 in 10.0 mi Calm Calm - N/A   Clear
4:54 PM 52.9 °F - 33.1 °F 47% 30.24 in 10.0 mi ESE 3.5 mph - N/A   Clear
5:14 PM 50.5 °F - 33.1 °F 51% 30.24 in 10.0 mi ESE 3.5 mph - N/A   Clear
5:34 PM 48.4 °F - 33.1 °F 56% 30.24 in 10.0 mi Calm Calm - N/A   Clear
5:54 PM 44.1 °F - 32.9 °F 65% 30.24 in 10.0 mi Calm Calm - N/A   Clear
6:14 PM 42.1 °F - 32.7 °F 69% 30.24 in 10.0 mi Calm Calm - N/A   Clear
6:34 PM 40.1 °F - 33.8 °F 78% 30.24 in 10.0 mi Calm Calm - N/A   Clear
6:54 PM 42.1 °F - 33.3 °F 71% 30.24 in 10.0 mi Calm Calm - N/A   Clear
7:14 PM 40.8 °F - 32.5 °F 72% 30.23 in 10.0 mi Calm Calm - N/A   Clear
7:34 PM 40.6 °F - 32.7 °F 73% 30.23 in 10.0 mi Calm Calm - N/A   Clear
7:54 PM 38.3 °F - 33.1 °F 81% 30.23 in 10.0 mi Calm Calm - N/A   Clear
8:14 PM 37.0 °F - 32.5 °F 84% 30.22 in 10.0 mi Calm Calm - N/A   Clear
8:34 PM 36.9 °F - 32.4 °F 84% 30.22 in 10.0 mi Calm Calm - N/A   Clear
8:54 PM 39.0 °F 36.8 °F 33.8 °F 82% 30.22 in 10.0 mi SW 3.5 mph - N/A   Clear
9:14 PM 40.3 °F - 33.8 °F 78% 30.22 in 10.0 mi Calm Calm - N/A   Clear
9:34 PM 39.7 °F - 33.6 °F 79% 30.22 in 10.0 mi Calm Calm - N/A   Clear
9:54 PM 37.0 °F - 32.2 °F 83% 30.22 in 10.0 mi Calm Calm - N/A   Clear
10:35 PM 37.9 °F - 32.0 °F 79% 30.21 in 10.0 mi Calm Calm - N/A   Clear
10:54 PM 37.4 °F - 32.2 °F 81% 30.20 in 10.0 mi Calm Calm - N/A   Clear
11:14 PM 35.2 °F - 32.0 °F 88% 30.20 in 10.0 mi Calm Calm - N/A   Clear
11:34 PM 35.6 °F - 32.0 °F 87% 30.20 in 10.0 mi Calm Calm - N/A   Clear
11:54 PM 35.6 °F - 31.8 °F 86% 30.19 in 10.0 mi Calm Calm - N/A   Clear